Molokai, HI

8:20 AM HST on April 28, 2017 (GMT -1000)
Molokai

Weather History for PHMK - January, 2013

Change the Weather History Date:

Monday, January 7, 2013

  Actual Average Record
Temperature  
Mean Temperature 75 °F -  
Max Temperature 79 °F 77 °F 87 °F (1983)
Min Temperature 70 °F 63 °F 57 °F (1971)
Cooling Degree Days 10    
Growing Degree Days 25 (Base 50)    
Moisture  
Dew Point 62 °F    
Average Humidity 68    
Maximum Humidity 81    
Minimum Humidity 52    
Precipitation  
Precipitation 0.00 in - - ()
Sea Level Pressure  
Sea Level Pressure 30.03 in    
Wind  
Wind Speed 12 mph (NE)    
Max Wind Speed 20 mph    
Max Gust Speed 32 mph    
Visibility 10 miles    
Events Rain    
Averages and records for this station are not official NWS values.
T = Trace of Precipitation, MM = Missing Value Source: NWS Daily Summary

Daily Weather History Graph

Daily Weather History Graph

Search for Another Location

Airport or City:

Trip Planner

Search our weather history database for the weather conditions in past years. The results will help you decide how hot, cold, wet, or windy it might be!

Date:

Astronomy

Jan. 07, 2013 Rise Set
Actual Time 7:07 AM HST 6:02 PM HST
Civil Twilight 6:43 AM HST 6:26 PM HST
Nautical Twilight 6:15 AM HST 6:54 PM HST
Astronomical Twilight 5:48 AM HST 7:21 PM HST
Moon 2:51 AM HST (1/7) 2:17 PM HST (1/7)
Length of Visible Light 11h 43m
Length of Day
10h 55m
Waning Crescent, 21% of the Moon is Illuminated
Jan 7
Waning Crescent
Jan 11
New
Jan 18
First Quarter
Jan 26
Full
Feb 3
Last Quarter

Hourly Weather History & Observations

Time (HST) Temp. Dew Point Humidity Pressure Visibility Wind Dir Wind Speed Gust Speed Precip Events Conditions
12:54 AM 71.1 °F 62.1 °F 73% 30.04 in 10.0 mi NE 8.1 mph - N/A   Clear
1:54 AM 71.1 °F 62.1 °F 73% 30.03 in 10.0 mi NE 10.4 mph 17.3 mph N/A   Clear
2:54 AM 71.1 °F 62.1 °F 73% 30.01 in 10.0 mi NE 10.4 mph 18.4 mph N/A   Partly Cloudy
3:54 AM 71.1 °F 62.1 °F 73% 30.02 in 10.0 mi NNE 8.1 mph - N/A   Clear
4:54 AM 71.1 °F 62.1 °F 73% 30.02 in 10.0 mi NE 12.7 mph 21.9 mph N/A   Clear
5:54 AM 71.1 °F 63.0 °F 75% 30.04 in 10.0 mi NE 10.4 mph 21.9 mph N/A   Partly Cloudy
6:54 AM 71.1 °F 63.0 °F 75% 30.06 in 10.0 mi NNE 11.5 mph 19.6 mph N/A   Scattered Clouds
7:54 AM 72.0 °F 64.9 °F 78% 30.08 in 9.0 mi NE 17.3 mph 25.3 mph 0.00 in Rain Light Rain
8:54 AM 73.9 °F 64.0 °F 71% 30.09 in 10.0 mi NNE 12.7 mph 21.9 mph 0.00 in   Scattered Clouds
9:54 AM 75.0 °F 64.0 °F 69% 30.09 in 10.0 mi NNE 16.1 mph 26.5 mph N/A   Clear
10:54 AM 77.0 °F 64.0 °F 64% 30.08 in 10.0 mi NE 10.4 mph 23.0 mph N/A   Scattered Clouds
11:54 AM 78.1 °F 63.0 °F 60% 30.06 in 10.0 mi NNE 12.7 mph 19.6 mph N/A   Scattered Clouds
12:54 PM 78.1 °F 63.0 °F 60% 30.02 in 10.0 mi NNE 15.0 mph 27.6 mph N/A   Clear
1:54 PM 78.1 °F 60.1 °F 54% 29.98 in 10.0 mi NE 16.1 mph 28.8 mph N/A   Clear
2:54 PM 79.0 °F 60.1 °F 52% 29.96 in 10.0 mi NE 16.1 mph 25.3 mph N/A   Clear
3:54 PM 77.0 °F 61.0 °F 58% 29.97 in 10.0 mi NNE 17.3 mph 27.6 mph N/A   Clear
4:54 PM 75.9 °F 60.1 °F 58% 30.00 in 10.0 mi NE 15.0 mph 29.9 mph N/A   Clear
5:54 PM 73.0 °F 61.0 °F 66% 30.01 in 10.0 mi NE 19.6 mph 32.2 mph N/A   Clear
6:54 PM 72.0 °F 62.1 °F 71% 30.03 in 10.0 mi NE 17.3 mph 29.9 mph N/A   Clear
7:54 PM 72.0 °F 62.1 °F 71% 30.03 in 10.0 mi NNE 16.1 mph 29.9 mph N/A   Clear
8:54 PM 72.0 °F 61.0 °F 68% 30.04 in 10.0 mi NE 13.8 mph 24.2 mph N/A   Clear
9:54 PM 72.0 °F 62.1 °F 71% 30.04 in 10.0 mi NNE 11.5 mph - N/A   Clear
10:54 PM 71.1 °F 63.0 °F 75% 30.04 in 10.0 mi NNE 15.0 mph 21.9 mph N/A   Clear
11:54 PM 70.0 °F 64.0 °F 81% 30.03 in 10.0 mi NNE 12.7 mph 20.7 mph 0.00 in   Scattered Clouds